Theta_e
324 327 329 334 331 332 338 339 341 343 339 340 340 340 340 342 342 344 341 339 327 331 335 336 337 336 332 325 323 324 324 324 324 324 323 323 324 325 326 327 328 327 325 322 318 315 316 318 322
325 327 331 332 326 328 328 335 341 339 338 340 342 342 343 341 341 337 338 333 328 327 334 336 337 335 332 328 324 324 324 324 323 323 323 325 327 328 328 326 323 320 316 314 315 317 321 324 326
326 327 331 322 323 328 328 330 335 337 338 339 337 341 341 342 339 337 337 336 327 328 333 336 336 336 332 329 324 324 324 324 323 323 325 327 328 329 324 318 315 314 314 315 316 320 323 325 326
324 328 324 326 329 326 328 327 327 337 338 338 338 341 342 341 339 337 337 339 333 329 333 336 336 336 333 328 324 325 324 324 323 324 325 327 328 327 319 314 314 314 315 316 317 320 322 322 322
323 325 320 322 323 323 323 325 327 337 339 341 340 341 340 341 340 338 339 341 334 328 333 335 336 336 333 326 325 325 324 324 323 323 324 326 327 326 318 314 314 315 315 316 317 319 320 321 323
323 322 320 322 322 322 321 326 336 336 338 343 342 340 339 340 340 339 341 342 334 329 331 335 335 334 332 325 325 325 325 324 324 323 324 325 327 326 319 315 314 315 315 316 317 318 319 320 322
319 317 320 321 322 321 322 325 334 336 339 341 342 339 338 340 340 340 341 340 332 331 332 334 333 332 329 325 325 325 325 325 324 323 324 325 326 326 321 317 315 316 316 317 317 318 319 320 321
322 317 319 317 320 321 322 324 325 339 341 341 342 338 337 338 339 340 341 337 332 331 331 332 331 328 324 325 326 326 326 325 325 324 324 325 325 325 322 319 317 316 317 318 319 324 325 325 324
320 314 316 318 319 321 321 320 323 332 340 342 341 339 339 338 339 341 341 334 331 330 329 328 327 325 324 326 326 326 326 326 326 325 324 324 325 325 323 321 324 318 318 327 331 334 332 328 324
314 312 316 316 318 319 319 318 320 331 338 340 341 342 340 338 339 341 343 339 332 329 326 325 324 323 324 326 326 326 326 326 326 325 324 324 325 325 324 322 332 328 332 335 334 335 334 334 333
313 314 314 317 318 318 317 318 320 330 336 341 341 342 338 338 339 341 344 344 341 336 327 327 325 324 325 326 327 328 327 325 325 325 325 325 325 325 325 322 332 335 335 335 335 336 336 336 335
315 315 315 317 319 317 317 319 319 328 326 333 337 342 337 338 340 341 344 345 340 333 335 333 330 327 327 328 329 329 328 326 325 325 325 325 325 325 326 326 333 335 337 337 336 336 337 337 337
313 315 316 318 318 318 317 316 317 319 322 330 327 339 336 337 339 341 343 343 342 340 339 338 335 333 329 328 329 329 328 326 325 328 327 325 325 325 325 326 331 335 336 337 336 335 336 337 337
316 315 316 318 318 319 317 317 318 323 322 324 330 338 336 337 338 341 342 342 341 342 341 342 339 337 334 330 328 328 328 327 331 336 332 329 328 329 329 333 332 331 334 336 336 336 337 337 336
316 315 313 317 318 316 318 319 316 321 327 328 337 337 336 337 338 338 338 339 339 341 341 342 342 338 337 334 330 330 331 327 334 338 333 337 336 336 337 337 337 337 336 335 336 337 337 337 337
314 312 313 315 316 319 318 317 317 320 326 333 338 338 337 337 339 338 338 338 339 340 340 339 341 340 339 339 335 336 332 330 337 339 339 340 340 340 340 340 339 339 338 337 337 337 337 337 336
308 314 315 314 316 317 317 317 318 320 323 328 334 338 338 338 339 339 339 339 339 339 340 338 339 340 338 340 339 338 336 336 338 339 339 340 340 340 341 341 340 333 338 338 337 337 337 336 336
314 315 314 315 316 316 316 316 315 319 319 321 323 327 334 338 337 339 340 340 339 339 339 339 337 338 338 340 340 339 339 338 338 339 339 339 341 341 342 342 341 339 333 331 337 337 336 336 335
315 315 315 315 315 318 318 315 316 318 319 319 321 321 323 329 329 335 340 341 340 339 339 339 338 336 337 337 339 339 338 338 339 339 340 340 340 341 341 340 341 337 331 329 337 336 335 334 332
315 317 316 315 316 317 318 317 315 317 319 320 320 321 322 323 326 330 334 340 341 340 338 338 338 337 336 336 336 338 337 337 337 340 340 341 340 340 340 339 340 338 333 330 337 336 333 331 324
317 317 317 317 317 317 316 317 315 320 319 322 324 329 331 324 323 324 329 332 338 341 340 338 337 337 336 336 336 338 338 338 338 340 339 340 340 340 340 340 339 336 329 332 336 334 331 323 319
319 317 318 319 317 317 316 320 318 317 319 323 326 328 334 329 322 322 323 327 327 335 341 340 338 337 337 336 335 336 336 336 337 338 340 340 341 340 340 340 339 332 331 334 334 331 324 320 315
318 318 318 319 316 317 317 318 319 318 322 323 323 328 331 338 331 326 324 324 326 331 337 340 340 338 336 335 335 335 336 336 338 339 337 337 338 338 338 339 339 336 335 334 331 324 321 317 312
318 319 315 313 312 317 316 318 319 320 322 320 323 327 329 333 335 335 333 332 332 334 336 338 338 337 335 334 334 335 336 338 339 339 339 339 341 339 340 339 338 335 333 331 325 321 318 313 309
315 314 316 318 317 319 316 318 321 321 322 323 323 325 327 330 335 337 337 337 337 337 337 337 337 336 335 334 334 335 337 337 338 341 342 343 343 343 339 338 336 333 330 325 322 318 313 310 310
316 315 316 320 318 316 314 320 323 323 322 325 325 325 329 329 337 343 343 339 338 337 336 337 337 336 336 335 335 336 338 342 345 345 346 346 345 342 338 336 333 329 325 322 319 315 312 312 312
318 317 315 315 314 315 314 318 319 320 322 323 324 325 331 333 331 331 342 346 343 340 341 339 338 339 339 342 348 350 348 346 344 342 346 344 342 340 337 336 331 326 323 319 316 314 313 314 314
317 315 319 314 318 320 316 317 319 321 321 321 321 327 337 338 334 331 331 335 344 347 346 344 343 344 348 348 346 343 342 344 342 342 342 341 340 338 337 333 328 324 319 316 315 315 314 314 314
319 318 315 314 314 316 317 318 316 321 320 319 320 335 335 336 337 337 337 336 338 344 348 348 349 350 345 341 338 335 335 335 340 341 340 339 337 336 332 327 322 319 317 316 315 314 314 313 313
318 319 315 318 320 317 315 319 318 324 329 327 329 327 333 334 334 336 337 339 341 344 347 348 349 345 343 341 335 326 323 327 334 335 335 332 326 326 323 321 319 318 316 314 314 314 314 314 313
Wind_Speed
16 12 6 1 3 5 4 4 2 4 3 3 2 4 5 2 5 5 5 20 22 29 31 30 26 23 21 20 20 18 17 15 15 15 14 13 12 11 10 10 10 11 12 12 13 13 12 10 9
14 13 3 2 4 3 5 3 5 7 6 4 3 4 3 3 4 3 14 23 24 27 30 29 27 24 22 21 20 19 17 16 16 16 15 13 12 11 9 10 11 12 13 14 14 13 11 10 9
10 9 3 4 3 1 3 4 5 6 15 7 4 4 2 3 5 9 12 22 28 29 30 30 27 24 21 21 20 19 18 17 16 15 14 13 12 10 9 10 12 14 14 14 13 11 10 8 7
8 3 4 3 2 5 4 7 6 3 8 12 8 6 3 3 3 12 17 22 23 30 31 30 28 24 21 20 20 18 17 15 14 14 14 12 10 9 8 10 12 13 13 13 11 10 8 6 5
4 3 4 3 2 6 6 11 10 2 4 5 7 3 1 3 7 9 18 19 23 29 30 29 27 24 21 20 20 18 16 14 13 14 13 12 10 8 7 9 11 12 12 12 10 9 7 6 5
1 3 3 3 1 7 8 9 1 2 4 4 3 4 1 8 9 10 15 17 25 26 29 29 27 23 22 21 20 17 15 15 14 13 13 12 10 7 6 9 10 10 10 10 9 8 7 7 7
6 4 4 2 3 6 4 15 7 5 1 3 5 3 5 9 14 12 19 21 26 27 28 28 26 24 22 21 20 18 17 15 13 13 13 12 10 8 7 8 10 10 10 9 8 8 8 8 9
5 6 3 3 3 6 3 6 16 4 4 6 7 5 5 14 15 20 21 24 25 27 27 27 25 24 24 23 22 19 17 16 14 14 13 12 11 9 8 9 10 11 10 9 8 8 9 11 11
5 4 3 4 4 5 5 3 6 7 7 7 10 10 9 18 20 25 25 26 27 27 26 26 26 26 25 24 22 20 19 18 16 16 14 14 12 11 10 9 10 11 10 9 8 8 10 11 11
4 4 8 7 3 6 18 6 12 4 8 10 18 19 15 22 23 28 28 27 27 27 26 25 26 26 26 25 23 22 21 20 18 17 15 15 13 12 12 11 10 11 10 11 10 10 10 11 11
3 5 4 8 14 13 8 11 4 4 3 14 26 22 17 25 27 29 28 26 23 24 28 26 27 28 28 27 25 24 22 21 19 18 17 15 15 15 14 13 14 12 10 10 11 12 12 12 12
1 8 6 8 9 8 4 8 4 11 14 15 20 22 22 27 31 32 32 30 30 30 27 24 27 29 29 27 26 24 23 21 20 19 19 18 17 16 15 14 14 14 13 13 14 13 14 15 16
4 4 5 15 21 16 12 14 8 14 12 21 15 23 25 28 32 29 28 27 28 30 29 26 26 26 28 29 27 26 24 22 20 20 20 19 19 17 15 15 15 14 15 15 15 15 16 16 17
3 9 17 12 12 8 5 8 9 21 9 13 17 28 28 29 31 32 34 33 32 30 30 29 27 27 28 28 27 26 26 23 21 19 19 19 19 16 16 15 15 15 15 16 18 17 16 17 17
6 6 9 3 5 4 9 6 4 11 10 13 24 31 29 30 32 35 33 35 31 30 29 32 29 28 31 28 26 27 26 26 23 18 17 18 17 17 17 16 14 13 16 16 17 19 18 18 20
4 5 6 6 11 3 4 9 5 14 13 18 28 32 34 35 36 34 35 35 36 35 33 28 31 30 30 30 27 25 24 25 24 21 20 20 20 20 21 20 19 14 19 19 18 18 20 21 22
7 2 3 10 4 4 6 8 13 13 9 14 23 30 34 38 40 40 39 35 37 36 34 32 32 32 30 30 29 27 24 26 26 25 23 23 24 24 24 23 21 24 25 16 28 22 22 22 21
3 4 5 5 6 6 6 7 9 6 5 9 15 23 31 33 41 38 41 41 36 38 38 37 33 33 32 32 32 30 30 28 29 28 28 27 27 26 26 28 27 16 15 19 28 23 21 21 21
2 3 3 6 5 3 4 7 12 19 7 5 12 14 22 32 32 40 40 41 40 41 42 42 39 35 37 36 34 34 34 34 33 31 31 31 28 29 28 29 29 16 22 25 24 22 20 19 19
4 3 7 6 3 3 7 10 7 8 14 19 19 19 17 26 32 35 40 45 43 43 40 45 43 41 39 39 39 38 36 35 35 33 32 33 30 29 27 29 30 21 24 18 21 20 17 17 16
3 4 3 5 5 3 7 7 8 8 8 17 14 15 13 19 28 33 37 37 42 47 46 44 45 40 40 41 42 41 40 39 38 36 33 32 31 29 31 31 27 16 15 22 21 16 15 15 16
4 3 4 2 3 2 4 3 6 8 11 15 26 18 16 12 8 18 24 33 34 39 46 42 43 39 39 40 43 44 43 42 40 37 33 32 31 31 34 33 28 13 21 27 16 14 14 15 14
6 5 4 2 2 2 6 4 8 7 9 14 19 31 28 23 14 9 13 20 28 30 36 39 39 38 39 41 44 43 45 43 41 36 34 34 34 40 42 37 28 23 26 14 14 12 13 14 14
2 1 5 4 3 3 5 4 6 4 6 10 14 28 34 35 21 16 13 9 14 18 22 28 32 34 36 38 43 44 44 41 40 40 39 37 40 39 36 24 21 16 13 11 11 12 13 12 11
7 7 4 5 5 4 1 2 7 6 7 5 13 25 26 29 28 18 13 8 8 9 13 19 24 29 32 34 37 36 35 34 34 33 34 32 28 29 28 20 14 12 10 9 9 11 10 10 8
3 5 5 2 2 5 4 2 5 2 18 18 23 24 25 26 26 20 16 16 14 8 8 13 18 24 26 25 25 27 30 29 28 28 26 20 17 19 17 12 10 10 8 8 11 10 8 7 6
1 6 2 5 2 2 4 6 10 10 16 24 26 32 34 32 28 24 19 16 15 13 13 9 16 19 20 20 19 18 21 23 19 20 17 13 13 13 11 12 10 9 9 11 9 8 7 9 10
7 3 4 4 1 3 5 5 4 12 12 11 19 29 35 35 31 26 23 20 18 19 18 17 18 18 15 14 19 22 19 20 21 20 17 10 9 12 14 12 8 8 10 8 8 9 11 14 14
5 4 4 4 3 4 1 5 5 5 6 10 15 25 29 31 33 32 26 22 19 19 19 21 19 10 15 9 23 33 35 34 25 14 11 9 10 9 6 6 5 7 6 8 10 12 13 14 14
3 3 4 4 5 1 3 6 2 5 16 21 23 27 28 29 32 31 29 26 22 20 18 18 14 19 16 13 11 34 37 42 22 10 5 4 3 3 3 4 4 5 8 10 11 11 12 14 14
Wind_Direction
349 355 349 350 50 58 292 274 286 297 272 219 200 191 231 222 181 210 206 175 174 174 172 169 170 175 178 175 172 169 167 164 164 165 164 162 159 159 158 158 159 159 156 156 153 148 144 141 140
346 351 13 57 77 45 288 250 230 222 229 251 275 232 228 275 249 248 157 163 174 179 175 173 174 179 181 180 175 172 168 169 169 169 166 163 164 162 164 168 168 163 158 156 153 151 150 146 148
349 356 13 83 103 207 276 244 241 267 232 232 332 245 206 236 228 179 167 169 175 182 178 176 178 182 184 182 179 175 173 172 172 169 167 169 166 164 169 169 165 161 159 160 160 159 155 156 159
348 358 47 76 237 269 240 266 289 254 248 237 221 268 188 224 215 176 174 177 181 183 180 179 181 186 187 185 182 180 178 176 173 172 175 174 171 170 169 167 162 162 165 169 168 170 173 179 188
352 40 36 343 291 271 255 277 311 261 333 330 210 298 70 177 174 189 181 182 185 183 182 182 185 188 191 190 188 185 182 180 180 181 181 180 181 179 174 171 169 172 174 178 181 184 198 212 227
87 71 38 275 164 270 284 304 320 148 213 32 250 284 188 177 182 190 183 184 188 186 184 185 188 192 195 194 194 190 188 189 189 188 189 189 190 191 187 183 181 183 184 188 193 204 221 237 249
140 93 223 252 272 293 264 354 329 263 158 198 248 312 295 190 196 183 176 186 185 189 186 188 191 195 198 199 198 196 196 197 196 197 198 199 200 204 206 199 193 191 194 198 207 221 236 252 260
170 105 168 251 220 264 279 4 351 343 248 245 231 221 265 183 174 176 181 186 186 191 191 190 195 198 200 201 202 203 204 206 205 206 207 208 211 216 220 212 203 200 203 208 219 236 247 255 263
156 73 218 245 204 252 219 337 320 292 248 225 218 255 278 182 171 176 184 188 192 195 197 196 198 202 204 205 206 208 211 212 213 214 215 217 220 225 227 219 215 210 210 215 231 250 257 266 273
116 124 221 217 226 271 295 278 289 233 233 256 243 248 256 185 180 186 185 191 195 198 201 203 204 207 207 208 210 213 215 217 218 220 222 225 228 233 235 226 223 209 221 238 244 257 273 284 278
164 191 216 270 277 286 274 312 237 192 231 223 229 233 201 190 192 194 193 197 193 189 198 204 209 211 212 213 214 217 220 222 224 226 227 229 234 239 241 235 228 234 239 243 256 265 274 287 285
246 259 241 282 298 298 248 287 256 219 254 259 246 234 203 202 200 199 200 203 203 201 200 204 212 214 216 219 221 223 224 226 229 231 232 234 239 244 247 238 234 243 249 256 263 274 279 287 290
184 261 267 294 294 285 275 257 230 255 268 248 278 219 216 214 211 208 210 209 210 211 210 208 213 216 220 222 225 226 227 229 233 237 239 240 245 248 246 240 244 250 254 262 274 279 277 282 285
266 277 286 295 292 279 244 274 176 269 241 244 228 213 217 222 218 212 216 215 216 218 218 217 220 220 222 225 229 231 231 232 233 241 242 243 244 241 239 244 249 255 263 271 274 274 275 282 287
286 316 333 322 327 305 282 341 222 321 219 203 205 212 218 224 224 225 219 219 221 222 222 223 227 229 227 229 232 236 236 233 233 239 237 237 239 238 243 251 260 273 270 273 271 277 277 282 286
15 52 12 296 349 309 61 298 302 4 217 208 203 210 218 227 234 230 231 227 228 228 227 228 229 231 231 233 233 234 232 232 235 237 238 239 245 249 251 252 256 270 278 270 280 282 276 280 285
0 2 342 320 326 318 49 298 301 342 233 226 221 221 225 234 235 237 236 235 233 235 235 234 232 235 235 235 235 238 239 238 240 241 243 245 248 253 257 259 262 266 266 278 297 278 273 280 284
330 342 314 246 301 347 348 277 289 350 214 235 240 238 240 239 242 246 242 241 242 240 240 242 242 238 238 239 238 239 239 240 243 244 245 248 251 255 256 257 251 260 330 270 277 267 270 275 283
244 225 259 268 264 287 303 282 293 321 308 265 251 244 251 245 250 247 248 246 244 245 245 240 242 243 239 237 239 241 243 244 246 247 247 250 253 253 250 252 245 226 287 267 264 265 273 275 283
220 289 286 284 266 167 323 306 318 324 319 319 310 316 284 249 245 244 245 244 241 245 243 247 242 244 244 245 245 245 247 252 254 255 252 250 250 250 252 255 250 253 284 278 261 268 267 276 292
209 190 242 236 337 11 334 339 330 325 326 348 2 328 308 264 249 244 245 243 244 243 243 244 250 244 249 250 249 248 251 253 256 256 256 251 252 258 260 246 267 265 310 286 255 261 270 281 295
346 236 249 289 62 254 28 272 314 322 326 6 355 354 8 357 286 255 247 251 247 247 245 246 249 252 251 253 254 251 252 255 259 259 261 257 258 268 260 243 268 235 291 265 253 264 274 289 296
237 62 352 31 85 30 343 65 279 353 336 332 330 3 20 27 16 331 274 262 266 258 254 250 249 253 254 252 252 252 251 255 256 259 264 264 258 264 265 259 234 237 256 241 251 267 284 294 291
96 44 41 53 55 29 284 116 302 312 291 306 316 0 18 18 9 5 352 334 304 286 274 261 254 259 257 254 252 250 252 255 255 260 260 257 264 257 264 245 240 229 228 233 254 275 289 290 298
63 51 352 7 9 234 345 34 235 288 302 276 305 329 0 11 8 2 351 6 345 330 302 279 268 265 262 258 256 254 256 262 266 263 264 276 274 247 241 233 230 214 214 239 271 289 291 301 306
78 128 141 287 269 275 319 276 256 243 340 344 5 12 15 17 16 12 356 15 0 21 347 309 290 278 273 269 264 262 263 264 276 288 281 273 260 266 222 221 212 213 231 262 282 285 294 302 309
88 38 175 106 354 23 296 306 311 9 5 6 358 3 5 3 4 5 360 346 328 336 319 296 286 290 286 282 274 270 285 295 310 308 283 270 264 231 222 217 215 221 250 270 279 294 303 304 308
90 154 24 14 325 298 306 300 266 347 338 342 354 3 6 7 4 360 347 337 325 321 310 294 286 282 276 293 311 316 316 323 320 308 288 270 241 219 223 210 205 244 261 275 297 305 309 306 305
359 9 39 106 119 167 296 274 205 283 318 336 351 15 14 13 12 10 359 350 323 301 288 286 285 275 294 306 40 14 352 344 315 294 279 246 219 220 213 215 238 258 281 300 308 311 309 304 300
93 120 119 102 292 135 153 272 90 10 32 29 18 19 21 24 19 13 8 1 347 329 312 292 291 283 279 273 262 319 311 311 319 292 257 252 160 157 213 223 253 292 302 306 311 311 307 305 304